TimeEST,TemperatureF,Dew PointF,Humidity,Sea Level PressureIn,VisibilityMPH,Wind Direction,Wind SpeedMPH,Gust SpeedMPH,PrecipitationIn,Events,Conditions,WindDirDegrees,DateUTC
12:04 AM,28.4,28.4,100,29.88,0.5,West,11.5,19.6,0.01,Fog-Snow,Snow,260,2013-02-01 05:04:00
12:19 AM,28.4,28.4,100,29.89,0.5,WNW,13.8,21.9,0.05,Fog-Snow,Snow,300,2013-02-01 05:19:00
12:29 AM,28.4,28.4,100,29.90,0.5,West,17.3,24.2,0.06,Fog-Snow,Snow,280,2013-02-01 05:29:00
12:34 AM,28.4,28.4,100,29.90,1.0,WNW,10.4,25.3,0.06,Snow,Light Snow,290,2013-02-01 05:34:00
12:40 AM,28.4,28.4,100,29.91,0.5,WNW,15.0,26.5,0.07,Fog-Snow,Snow,300,2013-02-01 05:40:00
12:48 AM,28.4,28.4,100,29.92,0.2,NW,16.1,32.2,0.08,Fog-Snow,Snow,320,2013-02-01 05:48:00
12:51 AM,28.4,28.4,100,29.96,0.8,NW,15.0,32.2,0.08,Snow,Light Snow,310,2013-02-01 05:51:00
12:54 AM,32.0,21.2,64,29.93,1.2,NW,12.7,32.2,0.00,Snow,Light Snow,320,2013-02-01 05:54:00
1:07 AM,30.2,19.4,64,29.95,2.0,NW,6.9,24.2,0.00,Snow,Light Snow,310,2013-02-01 06:07:00
1:15 AM,32.0,19.4,60,29.96,4.0,WNW,12.7,24.2,0.01,Snow,Light Snow,300,2013-02-01 06:15:00
1:38 AM,30.2,19.4,64,29.98,2.0,WNW,10.4,18.4,0.01,Snow,Light Snow,300,2013-02-01 06:38:00
1:51 AM,28.9,17.1,61,30.01,0.8,NW,17.3,26.5,0.01,Snow,Light Snow,310,2013-02-01 06:51:00
2:00 AM,28.4,17.6,64,30.00,0.5,NW,18.4,29.9,0.00,Snow,Snow,310,2013-02-01 07:00:00
2:23 AM,28.4,17.6,64,30.04,1.5,WNW,12.7,25.3,0.01,Snow,Light Snow,300,2013-02-01 07:23:00
2:29 AM,26.6,17.6,69,30.04,3.0,West,11.5,21.9,0.01,Snow,Light Snow,280,2013-02-01 07:29:00
2:51 AM,21.2,14.0,74,30.09,5.0,West,10.4,23.0,0.01,Snow,Light Snow,260,2013-02-01 07:51:00
3:34 AM,23.0,8.6,54,30.11,10.0,WNW,9.2,26.5,0.00,,Mostly Cloudy,290,2013-02-01 08:34:00
3:51 AM,23.0,9.0,55,30.15,5.0,West,16.1,25.3,0.00,Snow,Light Snow,270,2013-02-01 08:51:00
4:51 AM,17.6,7.0,63,30.21,9.0,West,15.0,28.8,0.00,,Partly Cloudy,280,2013-02-01 09:51:00
5:51 AM,14.0,1.9,59,30.25,10.0,WNW,9.2,17.3,0.00,,Clear,300,2013-02-01 10:51:00
6:51 AM,14.0,5.0,67,30.29,10.0,Variable,3.5,-,N/A,,Clear,0,2013-02-01 11:51:00
7:51 AM,12.2,5.0,73,30.32,10.0,West,8.1,16.1,N/A,,Mostly Cloudy,260,2013-02-01 12:51:00
8:51 AM,12.2,3.7,69,30.36,10.0,WSW,9.2,18.4,0.00,,Overcast,250,2013-02-01 13:51:00
9:51 AM,12.2,3.2,67,30.38,10.0,West,12.7,17.3,N/A,,Partly Cloudy,260,2013-02-01 14:51:00
10:51 AM,12.2,1.4,62,30.41,10.0,West,10.4,-,N/A,,Mostly Cloudy,260,2013-02-01 15:51:00
11:51 AM,14.0,1.4,57,30.42,10.0,West,10.4,-,0.00,,Mostly Cloudy,260,2013-02-01 16:51:00
12:51 PM,14.0,1.4,57,30.41,10.0,WSW,13.8,20.7,N/A,,Partly Cloudy,240,2013-02-01 17:51:00
1:51 PM,17.6,3.2,53,30.41,10.0,SW,9.2,16.1,N/A,,Partly Cloudy,220,2013-02-01 18:51:00
2:51 PM,19.4,5.0,54,30.40,10.0,WSW,9.2,-,N/A,,Partly Cloudy,240,2013-02-01 19:51:00
3:51 PM,19.4,5.0,54,30.40,10.0,Variable,6.9,-,N/A,,Clear,0,2013-02-01 20:51:00
4:51 PM,19.4,3.0,49,30.40,10.0,WSW,6.9,-,N/A,,Clear,240,2013-02-01 21:51:00
5:51 PM,19.4,5.0,54,30.40,10.0,West,5.8,-,N/A,,Clear,260,2013-02-01 22:51:00
6:51 PM,19.0,1.9,47,30.41,10.0,West,5.8,-,N/A,,Clear,270,2013-02-01 23:51:00
7:51 PM,15.8,5.0,62,30.43,10.0,West,3.5,-,N/A,,Clear,280,2013-02-02 00:51:00
8:51 PM,15.8,3.2,58,30.38,10.0,WSW,4.6,-,N/A,,Clear,240,2013-02-02 01:51:00
9:51 PM,14.0,5.0,67,30.43,10.0,Calm,Calm,-,N/A,,Clear,0,2013-02-02 02:51:00
10:51 PM,17.1,3.0,54,30.42,10.0,Calm,Calm,-,N/A,,Clear,0,2013-02-02 03:51:00
11:51 PM,17.1,3.9,56,30.39,10.0,Calm,Calm,-,N/A,,Clear,0,2013-02-02 04:51:00